Language: 


Des rapports , des résumés tant et plus, au choix de chacun....


Données Historiques de Météogheer
Journalier Rapport pour Mars 5, 2018 Unitée:  Métrique    Impériale   Les deux
Suivant Jour »
Journalier Hebdomadaire Mensuel Annuel Sur mesure
  Max: Min: Moyenne:
Température: 12.4 °C 0.9 °C 6.7 °C
Point de rosée: 10.0 °C 1.0 °C 4.8 °C
Humidité: 98% 72% 87%
Vent: 16.9km/h 0.0km/h 3.3km/h
Rafales: 20.9km/h - -
Vent- - South
Pression: 993.1 hPa 988.0 hPa -
Pluie: 0.3 mm    
Historical Graphs
 
 
Données tabulaires pour Mars 5, 2018
Heure Température Point de rosée Pression Vent Vent Rafales Humidité Pluie Taux (Horaire) Conditions
00:00 4.3 °C 4.0 °C 991.1 hPa South 7.6 km/h 7.6 km/h 98% 0.0 mm
00:10 4.3 °C 4.0 °C 991.1 hPa South 11.9 km/h 11.9 km/h 98% 0.0 mm
00:20 4.3 °C 4.0 °C 991.1 hPa South 4.7 km/h 13.0 km/h 98% 0.0 mm
00:30 4.1 °C 4.0 °C 991.1 hPa Calm   10.1 km/h 98% 0.0 mm
00:40 3.9 °C 4.0 °C 991.1 hPa SSW 5.0 km/h 9.7 km/h 98% 0.0 mm
00:50 3.8 °C 4.0 °C 991.1 hPa South 6.9 km/h 6.9 km/h 98% 0.0 mm
01:00 3.6 °C 4.0 °C 991.1 hPa South 2.1 km/h 9.3 km/h 98% 0.0 mm
01:10 3.4 °C 3.0 °C 991.1 hPa South 6.1 km/h 6.9 km/h 98% 0.0 mm
01:20 3.3 °C 3.0 °C 991.1 hPa Calm   9.7 km/h 98% 0.0 mm
01:30 3.3 °C 3.0 °C 991.1 hPa SSW 4.7 km/h 7.6 km/h 98% 0.0 mm
01:40 3.3 °C 3.0 °C 991.1 hPa Calm   10.1 km/h 98% 0.0 mm
01:50 3.3 °C 3.0 °C 991.1 hPa SSW 4.7 km/h 5.5 km/h 98% 0.0 mm
02:00 3.3 °C 3.0 °C 991.1 hPa Calm   9.7 km/h 98% 0.0 mm
02:10 3.1 °C 3.0 °C 991.1 hPa Calm   6.1 km/h 98% 0.0 mm
02:20 3.1 °C 3.0 °C 991.1 hPa SSW 4.7 km/h 4.7 km/h 98% 0.0 mm
02:30 3.0 °C 3.0 °C 991.1 hPa Calm   5.8 km/h 98% 0.0 mm
02:40 3.0 °C 3.0 °C 991.1 hPa South 4.7 km/h 8.7 km/h 98% 0.0 mm
02:50 2.8 °C 3.0 °C 991.1 hPa Calm   6.9 km/h 98% 0.0 mm
03:00 2.6 °C 3.0 °C 991.1 hPa Calm   4.3 km/h 98% 0.0 mm
03:10 2.4 °C 3.0 °C 991.1 hPa SSW 2.6 km/h 2.6 km/h 98% 0.0 mm
03:20 2.1 °C 2.0 °C 992.1 hPa Calm   2.6 km/h 98% 0.0 mm
03:30 1.9 °C 2.0 °C 991.1 hPa Calm     98% 0.0 mm
03:40 1.8 °C 2.0 °C 991.1 hPa Calm     98% 0.0 mm
03:50 1.9 °C 2.0 °C 991.1 hPa Calm   1.8 km/h 98% 0.0 mm
04:00 1.8 °C 2.0 °C 991.1 hPa Calm     98% 0.0 mm
04:10 1.7 °C 2.0 °C 991.1 hPa Calm     98% 0.0 mm
04:20 1.7 °C 2.0 °C 991.1 hPa Calm     98% 0.0 mm
04:30 1.8 °C 2.0 °C 991.1 hPa Calm   6.1 km/h 98% 0.0 mm
04:40 1.8 °C 2.0 °C 991.1 hPa South 9.7 km/h 9.7 km/h 98% 0.0 mm
04:50 1.9 °C 2.0 °C 991.1 hPa South 6.9 km/h 9.7 km/h 98% 0.0 mm
05:00 2.0 °C 2.0 °C 991.1 hPa Calm   10.1 km/h 98% 0.0 mm
05:10 1.9 °C 2.0 °C 991.1 hPa Calm   1.8 km/h 98% 0.0 mm
05:20 1.9 °C 2.0 °C 991.1 hPa Calm   4.3 km/h 98% 0.0 mm
05:30 1.9 °C 2.0 °C 991.1 hPa Calm   4.7 km/h 98% 0.0 mm
05:40 1.8 °C 2.0 °C 991.1 hPa Calm     98% 0.0 mm
05:50 1.6 °C 2.0 °C 991.1 hPa Calm     98% 0.0 mm
06:00 1.5 °C 2.0 °C 991.1 hPa Calm     98% 0.0 mm
06:05 1.6 °C 2.0 °C 991.1 hPa Calm     98% 0.0 mm
06:10 1.6 °C 2.0 °C 991.1 hPa Calm   2.6 km/h 98% 0.0 mm
06:20 1.4 °C 1.0 °C 991.1 hPa Calm     98% 0.0 mm
06:30 1.4 °C 1.0 °C 991.1 hPa Calm     98% 0.0 mm
06:40 1.2 °C 1.0 °C 991.1 hPa Calm     98% 0.0 mm
06:50 1.0 °C 1.0 °C 991.1 hPa Calm     98% 0.0 mm
07:00 0.9 °C 1.0 °C 991.1 hPa Calm     98% 0.0 mm
07:10 1.0 °C 1.0 °C 991.1 hPa Calm     98% 0.0 mm
07:20 1.1 °C 1.0 °C 991.1 hPa SSE 4.0 km/h 4.0 km/h 98% 0.0 mm
07:30 1.5 °C 2.0 °C 991.1 hPa Calm   4.0 km/h 98% 0.0 mm
07:40 1.7 °C 2.0 °C 991.1 hPa Calm   7.9 km/h 98% 0.0 mm
07:50 1.9 °C 2.0 °C 992.1 hPa Calm   6.9 km/h 98% 0.0 mm
08:00 2.1 °C 2.0 °C 991.1 hPa Calm   6.4 km/h 98% 0.0 mm
08:10 2.5 °C 3.0 °C 991.1 hPa Calm   6.4 km/h 98% 0.3 mm
08:20 2.6 °C 3.0 °C 993.1 hPa Calm   6.4 km/h 98% 0.3 mm
08:30 2.7 °C 3.0 °C 993.1 hPa South 1.8 km/h 7.9 km/h 98% 0.3 mm
08:40 2.8 °C 3.0 °C 993.1 hPa South 3.2 km/h 11.6 km/h 98% 0.3 mm
08:50 3.0 °C 3.0 °C 993.1 hPa South 1.8 km/h 10.5 km/h 98% 0.3 mm
09:00 3.1 °C 3.0 °C 993.1 hPa South 6.1 km/h 9.7 km/h 98% 0.3 mm
09:10 3.2 °C 3.0 °C 993.1 hPa SSW 1.4 km/h 11.9 km/h 98% 0.0 mm
09:20 3.4 °C 3.0 °C 993.1 hPa South 12.6 km/h 12.6 km/h 98% 0.0 mm
09:30 3.4 °C 3.0 °C 993.1 hPa South 8.7 km/h 13.7 km/h 98% 0.0 mm
09:40 3.5 °C 4.0 °C 993.1 hPa SSW 16.9 km/h 20.6 km/h 98% 0.0 mm
09:50 3.7 °C 4.0 °C 993.1 hPa South 7.6 km/h 16.9 km/h 98% 0.0 mm
10:00 3.9 °C 4.0 °C 993.1 hPa SSW 7.6 km/h 14.0 km/h 98% 0.0 mm
10:05 3.9 °C 4.0 °C 993.1 hPa South 9.7 km/h 15.1 km/h 98% 0.0 mm
10:10 4.0 °C 4.0 °C 993.1 hPa SSW 5.8 km/h 15.1 km/h 98% 0.0 mm
10:20 4.3 °C 4.0 °C 993.1 hPa SW 4.7 km/h 15.8 km/h 98% 0.0 mm
10:30 4.6 °C 5.0 °C 993.1 hPa South 6.1 km/h 10.1 km/h 98% 0.0 mm
10:40 4.8 °C 5.0 °C 993.1 hPa SSW 11.6 km/h 13.0 km/h 98% 0.0 mm
10:50 5.2 °C 5.0 °C 993.1 hPa South 3.2 km/h 16.3 km/h 98% 0.0 mm
11:00 5.3 °C 6.0 °C 993.1 hPa Calm   11.9 km/h 98% 0.0 mm
11:10 5.7 °C 6.0 °C 993.1 hPa SSE 3.5 km/h 11.9 km/h 98% 0.0 mm
11:20 6.0 °C 6.0 °C 993.1 hPa South 6.1 km/h 12.2 km/h 98% 0.0 mm
11:30 6.3 °C 6.0 °C 992.1 hPa SSE 7.9 km/h 12.2 km/h 98% 0.0 mm
11:40 6.7 °C 7.0 °C 992.1 hPa SSW 8.7 km/h 13.0 km/h 98% 0.0 mm
11:50 7.0 °C 7.0 °C 993.1 hPa South 9.0 km/h 12.6 km/h 98% 0.0 mm
12:00 7.5 °C 8.0 °C 992.1 hPa SSW 6.4 km/h 11.9 km/h 98% 0.0 mm
12:10 8.0 °C 8.0 °C 992.1 hPa SSE 5.8 km/h 10.5 km/h 98% 0.0 mm
12:20 8.5 °C 9.0 °C 992.1 hPa SSW 4.7 km/h 11.1 km/h 98% 0.0 mm
12:30 9.6 °C 10.0 °C 992.1 hPa South 6.4 km/h 11.6 km/h 98% 0.0 mm
12:40 10.2 °C 10.0 °C 992.1 hPa SSW 8.7 km/h 14.0 km/h 96% 0.0 mm
12:50 10.4 °C 9.0 °C 992.1 hPa Calm   13.0 km/h 94% 0.0 mm
13:00 10.1 °C 8.0 °C 990.1 hPa South 8.7 km/h 14.0 km/h 87% 0.0 mm
13:05 10.2 °C 9.0 °C 990.1 hPa SSW 6.9 km/h 16.6 km/h 88% 0.0 mm
13:10 10.6 °C 9.0 °C 990.1 hPa SSE 9.3 km/h 16.6 km/h 87% 0.0 mm
13:20 11.2 °C 9.0 °C 990.1 hPa SE 3.5 km/h 15.8 km/h 88% 0.0 mm
13:30 11.4 °C 9.0 °C 990.1 hPa SSE 8.7 km/h 11.9 km/h 85% 0.0 mm
13:35 11.2 °C 9.0 °C 990.1 hPa SSE 9.3 km/h 14.0 km/h 83% 0.0 mm
13:40 10.9 °C 8.0 °C 990.1 hPa South 10.1 km/h 16.9 km/h 81% 0.0 mm
13:50 11.3 °C 8.0 °C 991.1 hPa SSE 10.1 km/h 17.2 km/h 81% 0.0 mm
13:55 11.4 °C 8.0 °C 991.1 hPa SSE 10.5 km/h 17.2 km/h 81% 0.0 mm
14:00 11.4 °C 8.0 °C 991.1 hPa SSE 9.7 km/h 16.6 km/h 80% 0.0 mm
14:10 11.3 °C 8.0 °C 991.1 hPa Calm   16.6 km/h 80% 0.0 mm
14:20 11.5 °C 9.0 °C 991.1 hPa SSE 9.7 km/h 18.0 km/h 81% 0.0 mm
14:29 12.1 °C 9.0 °C 991.1 hPa South 9.0 km/h 15.1 km/h 80% 0.0 mm
14:35 12.4 °C 9.0 °C 991.1 hPa SSE 14.0 km/h 16.3 km/h 77% 0.0 mm
14:40 12.3 °C 8.0 °C 991.1 hPa SSE 13.0 km/h 20.9 km/h 74% 0.0 mm
14:45 12.2 °C 8.0 °C 990.1 hPa SSE 16.6 km/h 20.9 km/h 72% 0.0 mm
14:50 11.9 °C 7.0 °C 990.1 hPa SSE 10.8 km/h 19.5 km/h 73% 0.0 mm
15:00 11.8 °C 7.0 °C 990.1 hPa South 7.6 km/h 16.3 km/h 74% 0.0 mm
15:05 11.7 °C 7.0 °C 990.1 hPa South 2.6 km/h 17.2 km/h 74% 0.0 mm
15:10 11.6 °C 7.0 °C 990.1 hPa SSE 14.0 km/h 17.2 km/h 74% 0.0 mm
15:20 11.4 °C 7.0 °C 990.1 hPa SSE 12.6 km/h 15.4 km/h 73% 0.0 mm
15:30 11.4 °C 7.0 °C 989.1 hPa South 1.8 km/h 16.6 km/h 74% 0.0 mm
15:40 11.4 °C 7.0 °C 989.1 hPa South 9.3 km/h 13.7 km/h 75% 0.0 mm
15:45 11.5 °C 7.0 °C 989.1 hPa South 7.9 km/h 13.7 km/h 74% 0.0 mm
15:50 11.7 °C 8.0 °C 989.1 hPa Calm   10.1 km/h 75% 0.0 mm
15:55 11.6 °C 7.0 °C 989.1 hPa SSE 8.7 km/h 8.7 km/h 74% 0.0 mm
16:00 11.7 °C 8.0 °C 989.1 hPa Calm   15.4 km/h 75% 0.0 mm
16:05 11.7 °C 8.0 °C 989.1 hPa Calm   15.4 km/h 75% 0.0 mm
16:10 11.6 °C 7.0 °C 989.1 hPa SSE 4.7 km/h 11.9 km/h 74% 0.0 mm
16:19 11.4 °C 7.0 °C 989.1 hPa Calm   11.9 km/h 72% 0.0 mm
16:25 11.3 °C 7.0 °C 989.1 hPa South 10.1 km/h 13.7 km/h 72% 0.0 mm
16:30 11.3 °C 7.0 °C 989.1 hPa South 3.2 km/h 13.7 km/h 73% 0.0 mm
16:40 11.2 °C 7.0 °C 989.1 hPa SE 3.2 km/h 8.7 km/h 74% 0.0 mm
16:45 11.2 °C 7.0 °C 989.1 hPa SSE 5.5 km/h 7.9 km/h 74% 0.0 mm
16:50 11.2 °C 7.0 °C 989.1 hPa Calm   9.0 km/h 74% 0.0 mm
17:00 11.2 °C 7.0 °C 989.1 hPa Calm   7.6 km/h 74% 0.0 mm
17:05 11.2 °C 7.0 °C 989.1 hPa Calm   7.6 km/h 74% 0.0 mm
17:10 11.1 °C 7.0 °C 989.1 hPa SSE 2.6 km/h 4.0 km/h 74% 0.0 mm
17:15 11.0 °C 6.0 °C 989.1 hPa SSE 4.0 km/h 4.0 km/h 73% 0.0 mm
17:20 10.9 °C 7.0 °C 989.1 hPa Calm   6.1 km/h 74% 0.0 mm
17:30 10.8 °C 6.0 °C 988.0 hPa Calm   7.6 km/h 74% 0.0 mm
17:35 10.8 °C 6.0 °C 988.0 hPa Calm   5.5 km/h 73% 0.0 mm
17:40 10.8 °C 6.0 °C 988.0 hPa Calm   8.7 km/h 74% 0.0 mm
17:50 10.6 °C 6.0 °C 989.1 hPa Calm   6.4 km/h 73% 0.0 mm
17:55 10.5 °C 6.0 °C 989.1 hPa Calm   5.8 km/h 74% 0.0 mm
18:00 10.4 °C 6.0 °C 989.1 hPa SE 5.0 km/h 7.6 km/h 74% 0.0 mm
18:10 10.1 °C 6.0 °C 989.1 hPa ESE 5.8 km/h 10.1 km/h 74% 0.0 mm
18:15 10.1 °C 6.0 °C 989.1 hPa SE 6.9 km/h 10.1 km/h 74% 0.0 mm
18:20 10.0 °C 6.0 °C 989.1 hPa Calm   9.7 km/h 74% 0.0 mm
18:30 9.6 °C 6.0 °C 989.1 hPa Calm   7.9 km/h 75% 0.0 mm
18:40 9.4 °C 6.0 °C 989.1 hPa Calm   2.1 km/h 75% 0.0 mm
18:50 9.1 °C 5.0 °C 989.1 hPa Calm   1.4 km/h 75% 0.0 mm
18:55 9.0 °C 5.0 °C 989.1 hPa Calm   1.4 km/h 76% 0.0 mm
19:00 8.9 °C 5.0 °C 988.0 hPa Calm   4.0 km/h 76% 0.0 mm
19:05 8.8 °C 6.0 °C 988.0 hPa Calm   4.0 km/h 77% 0.0 mm
19:10 8.7 °C 5.0 °C 988.0 hPa Calm   5.5 km/h 77% 0.0 mm
19:20 8.5 °C 5.0 °C 989.1 hPa Calm     77% 0.0 mm
19:30 8.3 °C 5.0 °C 988.0 hPa Calm     78% 0.0 mm
19:40 8.1 °C 5.0 °C 988.0 hPa Calm     78% 0.0 mm
19:45 8.1 °C 5.0 °C 989.1 hPa Calm     79% 0.0 mm
19:50 8.0 °C 5.0 °C 989.1 hPa Calm   5.5 km/h 79% 0.0 mm
20:00 8.0 °C 5.0 °C 989.1 hPa Calm   1.4 km/h 80% 0.0 mm
20:05 8.0 °C 5.0 °C 989.1 hPa NE 3.2 km/h 5.5 km/h 80% 0.0 mm
20:10 8.0 °C 5.0 °C 989.1 hPa Calm   6.9 km/h 81% 0.0 mm
20:15 8.0 °C 5.0 °C 989.1 hPa Calm   6.9 km/h 81% 0.0 mm
20:20 8.0 °C 5.0 °C 989.1 hPa ESE 5.5 km/h 10.5 km/h 81% 0.0 mm
20:30 8.0 °C 5.0 °C 989.1 hPa Calm   9.0 km/h 81% 0.0 mm
20:40 8.0 °C 5.0 °C 989.1 hPa East 8.7 km/h 8.7 km/h 81% 0.0 mm
20:45 8.0 °C 5.0 °C 989.1 hPa Calm   10.1 km/h 81% 0.0 mm
20:50 8.0 °C 5.0 °C 989.1 hPa East 6.9 km/h 10.1 km/h 81% 0.0 mm
21:00 8.0 °C 5.0 °C 989.1 hPa ESE 5.8 km/h 7.6 km/h 81% 0.0 mm
21:10 7.9 °C 5.0 °C 989.1 hPa Calm   6.9 km/h 81% 0.0 mm
21:20 7.7 °C 5.0 °C 989.1 hPa Calm   7.6 km/h 81% 0.0 mm
21:30 7.5 °C 5.0 °C 988.0 hPa Calm   6.9 km/h 81% 0.0 mm
21:40 7.4 °C 4.0 °C 988.0 hPa East 1.4 km/h 1.4 km/h 81% 0.0 mm
21:50 7.3 °C 4.0 °C 988.0 hPa Calm   5.8 km/h 81% 0.0 mm
22:00 7.2 °C 4.0 °C 988.0 hPa Calm   6.9 km/h 81% 0.0 mm
22:10 7.1 °C 4.0 °C 988.0 hPa Calm   9.3 km/h 81% 0.0 mm
22:20 7.0 °C 4.0 °C 988.0 hPa Calm   8.7 km/h 81% 0.0 mm
22:35 6.9 °C 4.0 °C 988.0 hPa Calm   6.4 km/h 81% 0.0 mm
22:40 6.8 °C 4.0 °C 988.0 hPa Calm     81% 0.0 mm
22:50 6.6 °C 4.0 °C 988.0 hPa Calm     81% 0.0 mm
23:00 6.5 °C 4.0 °C 988.0 hPa Calm     81% 0.0 mm
23:10 6.4 °C 3.0 °C 988.0 hPa Calm   4.3 km/h 81% 0.0 mm
23:20 6.0 °C 3.0 °C 988.0 hPa Calm     81% 0.0 mm
23:29 5.8 °C 3.0 °C 988.0 hPa Calm   2.1 km/h 82% 0.0 mm
23:35 5.7 °C 3.0 °C 988.0 hPa Calm   2.1 km/h 82% 0.0 mm
23:40 5.6 °C 3.0 °C 988.0 hPa Calm     82% 0.0 mm
23:49 5.4 °C 3.0 °C 988.0 hPa Calm     83% 0.0 mm
23:55 5.3 °C 3.0 °C 988.0 hPa Calm     83% 0.0 mm
Données Historique de Météo Turbie

Mise a jour : 18/06/2018 07:45:12
Généré par Cumulus 1.9.4 (1099)